Weather History for Valentine, NE

Change the Weather History Date:

Sunday, September 2, 2012

  Actual Average Record
Temperature  
Mean Temperature 83 °F 69 °F  
Max Temperature 92 °F 83 °F 103 °F (1983)
Min Temperature 73 °F 54 °F 35 °F (1974)
Degree Days  
Heating Degree Days 0 2  
Month to date heating degree days 0 4  
Since 1 July heating degree days 6 29  
Cooling Degree Days 18 5  
Month to date cooling degree days 33 11  
Year to date cooling degree days 1231 747  
Growing Degree Days 32 (Base 50)    
Moisture  
Dew Point 50 °F    
Average Humidity 37    
Maximum Humidity 53    
Minimum Humidity 21    
Precipitation  
Precipitation 0.00 in 0.05 in 0.66 in (1896)
Month to date precipitation 0.00 0.10  
Year to date precipitation 9.24 16.21  
Snow  
Snow 0.00 in 0.00 in 0.00 in ()
Month to date snowfall 0.0 0.0  
Since 1 July snowfall 0.0 0.0  
Since 1 September snowfall 0.0 0.0  
Snow Depth 0.00 in    
Sea Level Pressure  
Sea Level Pressure 29.85 in    
Wind  
Wind Speed 11 mph (West)    
Max Wind Speed 23 mph    
Max Gust Speed 30 mph    
Visibility 10 miles    
Events      
T = Trace of Precipitation, MM = Missing Value Source: NWS Daily Summary

Daily Weather History Graph

Daily Weather History Graph

Search for Another Location

Airport:

Trip Planner

Search our weather history database for the weather conditions in past years. The results will help you decide how hot, cold, wet, or windy it might be!

Date:

Astronomy

Sep. 02, 2012 Rise Set
Actual Time 7:08 AM CDT 8:14 PM CDT
Civil Twilight 6:39 AM CDT 8:43 PM CDT
Nautical Twilight 6:04 AM CDT 9:17 PM CDT
Astronomical Twilight 5:28 AM CDT 9:53 PM CDT
Moon 8:56 PM CDT (9/2) 9:23 AM CDT (9/2)
Length of Visible Light 14h 03m
Length of Day
13h 05m
Waning Gibbous, 95% of the Moon is Illuminated
Sep 2
Waning Gibbous
Sep 8
Last Quarter
Sep 15
New
Sep 22
First Quarter
Sep 29
Full

Hourly Weather History & Observations

Time (CDT) Temp. Heat Index Dew Point Humidity Pressure Visibility Wind Dir Wind Speed Gust Speed Precip Events Conditions
12:52 AM 81.0 °F 80.8 °F 55.9 °F 42% 29.82 in 10.0 mi South 20.7 mph 29.9 mph N/A   Unknown
1:52 AM 78.1 °F - 55.9 °F 46% 29.83 in 10.0 mi South 12.7 mph - N/A   Unknown
2:52 AM 75.9 °F - 55.9 °F 50% 29.83 in 10.0 mi SW 8.1 mph - N/A   Unknown
3:52 AM 75.0 °F - 55.9 °F 51% 29.84 in 10.0 mi SW 11.5 mph - N/A   Unknown
4:52 AM 73.4 °F - 55.4 °F 53% 29.92 in 10.0 mi SSW 10.4 mph - N/A   Unknown
5:52 AM 73.0 °F - 54.0 °F 51% 29.80 in 10.0 mi South 15.0 mph - N/A   Unknown
6:52 AM 75.0 °F - 54.0 °F 48% 29.81 in 10.0 mi SSW 13.8 mph - N/A   Unknown
7:52 AM 75.0 °F - 53.1 °F 46% 29.83 in 10.0 mi SSW 12.7 mph - N/A   Unknown
8:52 AM 77.0 °F - 51.1 °F 40% 29.84 in 10.0 mi WSW 12.7 mph - N/A   Unknown
9:52 AM 82.0 °F - 48.9 °F 31% 29.85 in 10.0 mi SW 9.2 mph - N/A   Unknown
10:19 AM 82.4 °F - 46.4 °F 28% 29.93 in 10.0 mi West 11.5 mph - N/A   Unknown
10:52 AM 86.0 °F - 45.0 °F 24% 29.85 in 10.0 mi WNW 13.8 mph 23.0 mph N/A   Unknown
11:52 AM 88.0 °F - 46.0 °F 23% 29.84 in 10.0 mi WNW 18.4 mph 24.2 mph N/A   Unknown
12:52 PM 84.9 °F - 48.0 °F 28% 29.84 in 10.0 mi NW 18.4 mph 26.5 mph N/A   Unknown
1:52 PM 84.9 °F - 48.9 °F 29% 29.88 in 10.0 mi WNW 9.2 mph - N/A   Unknown
2:52 PM 89.1 °F - 48.9 °F 25% 29.86 in 10.0 mi North 13.8 mph 23.0 mph N/A   Unknown
3:52 PM 89.1 °F - 48.9 °F 25% 29.85 in 10.0 mi NW 10.4 mph 20.7 mph N/A   Unknown
4:52 PM 91.0 °F - 46.0 °F 21% 29.85 in 10.0 mi NNW 12.7 mph 17.3 mph N/A   Unknown
5:52 PM 91.0 °F - 46.0 °F 21% 29.86 in 10.0 mi North 10.4 mph - N/A   Unknown
6:52 PM 90.0 °F - 46.0 °F 22% 29.86 in 10.0 mi North 9.2 mph - N/A   Unknown
7:52 PM 84.9 °F - 48.0 °F 28% 29.87 in 10.0 mi NE 10.4 mph - N/A   Unknown
8:52 PM 80.1 °F - 48.0 °F 32% 29.88 in 10.0 mi NE 5.8 mph - N/A   Unknown
9:52 PM 75.0 °F - 48.0 °F 38% 29.90 in 10.0 mi East 5.8 mph - N/A   Unknown
10:52 PM 73.0 °F - 48.9 °F 42% 29.90 in 10.0 mi East 5.8 mph - N/A   Unknown
11:52 PM 73.9 °F - 50.0 °F 43% 29.90 in 10.0 mi ENE 4.6 mph - N/A   Unknown